When you browse on this site, cookies collect data to enhance your experience and personalize the content and advertising you see.
Visit our Privacy Policy to learn more. By continuing to use the site, you agree to this use of cookies and data.
  • In United Kingdom
  • List of Countries
  • For 7 days
  • Water Temperature
  • Weather Map
  • Weather Widgets
  • user-avatar
    Login

    Hourly Weather San Pedro Sula

    Today, 30 May, Saturday

    Time Temperature Precipitation Wind Pressure Humidity
    00:00 +24°C° 0.2 mm 0 mps 744 mmHg 88%
    01:00 +26°C° 0 mm 1 mps 744 mmHg 88%
    02:00 +26°C° 0 mm 1 mps 744 mmHg 87%
    03:00 +25°C° 0 mm 1 mps 743 mmHg 87%
    04:00 +26°C° 0 mm 1 mps 743 mmHg 87%
    05:00 +26°C° 0 mm 1 mps 744 mmHg 87%
    06:00 +26°C° 0 mm 1 mps 744 mmHg 86%
    07:00 +27°C° 0 mm 1 mps 744 mmHg 81%
    08:00 +28°C° 0 mm 1 mps 744 mmHg 76%
    09:00 +29°C° 0 mm 1 mps 745 mmHg 71%
    10:00 +30°C° 0 mm 1 mps 744 mmHg 68%
    11:00 +31°C° 0 mm 1 mps 744 mmHg 65%
    12:00 +32°C° 0 mm 1 mps 744 mmHg 61%
    13:00 +31°C° 0.4 mm 1 mps 744 mmHg 66%
    14:00 +30°C° 0.4 mm 1 mps 743 mmHg 70%
    15:00 +30°C° 0.4 mm 1 mps 742 mmHg 74%
    16:00 +29°C° 0.6 mm 1 mps 742 mmHg 79%
    17:00 +26°C° 0.6 mm 0 mps 743 mmHg 83%
    18:00 +26°C° 0.6 mm 0 mps 743 mmHg 88%
    19:00 +25°C° 0.1 mm 0 mps 743 mmHg 88%
    20:00 +25°C° 0.1 mm 0 mps 743 mmHg 89%
    21:00 +24°C° 0.1 mm 0 mps 744 mmHg 89%
    22:00 +26°C° 0.2 mm 1 mps 744 mmHg 90%
    23:00 +26°C° 0.2 mm 1 mps 744 mmHg 91%

    Tomorrow, 31 May, Sunday

    Time Temperature Precipitation Wind Pressure Humidity
    00:00 +26°C° 0.2 mm 2 mps 744 mmHg 92%
    01:00 +25°C° 0.7 mm 2 mps 743 mmHg 93%
    02:00 +25°C° 0.7 mm 1 mps 743 mmHg 94%
    03:00 +25°C° 0.7 mm 1 mps 742 mmHg 95%
    04:00 +25°C° 0.7 mm 1 mps 743 mmHg 95%
    05:00 +25°C° 0.7 mm 1 mps 743 mmHg 95%
    06:00 +25°C° 0.7 mm 1 mps 743 mmHg 95%
    07:00 +25°C° 0.7 mm 1 mps 743 mmHg 94%
    08:00 +25°C° 0.7 mm 1 mps 744 mmHg 94%
    09:00 +24°C° 0.7 mm 0 mps 744 mmHg 93%
    10:00 +26°C° 1.1 mm 1 mps 744 mmHg 93%
    11:00 +26°C° 1.1 mm 1 mps 744 mmHg 94%
    12:00 +25°C° 1.1 mm 1 mps 744 mmHg 94%
    13:00 +25°C° 1.5 mm 1 mps 743 mmHg 94%
    14:00 +25°C° 1.5 mm 1 mps 743 mmHg 94%
    15:00 +25°C° 1.5 mm 1 mps 743 mmHg 94%
    16:00 +23°C° 0.5 mm 0 mps 743 mmHg 95%
    17:00 +23°C° 0.5 mm 0 mps 743 mmHg 96%
    18:00 +23°C° 0.5 mm 0 mps 743 mmHg 96%
    19:00 +23°C° 1.3 mm 0 mps 744 mmHg 97%
    20:00 +23°C° 1.3 mm 0 mps 744 mmHg 97%
    21:00 +23°C° 1.3 mm 0 mps 744 mmHg 97%
    22:00 +23°C° 1.4 mm 0 mps 744 mmHg 98%
    23:00 +23°C° 1.4 mm 0 mps 744 mmHg 98%

    Day after tomorrow, 1 June, Monday

    Time Temperature Precipitation Wind Pressure Humidity
    00:00 +23°C° 1.4 mm 0 mps 744 mmHg 98%
    01:00 +23°C° 0.8 mm 0 mps 744 mmHg 98%
    02:00 +25°C° 0.8 mm 1 mps 744 mmHg 98%
    03:00 +24°C° 0.8 mm 1 mps 743 mmHg 98%
    04:00 +25°C° 0.6 mm 1 mps 743 mmHg 97%
    05:00 +25°C° 0.6 mm 1 mps 743 mmHg 97%
    06:00 +25°C° 0.6 mm 1 mps 744 mmHg 97%
    07:00 +25°C° 0.8 mm 1 mps 744 mmHg 96%
    08:00 +25°C° 0.8 mm 1 mps 745 mmHg 95%
    09:00 +26°C° 0.8 mm 1 mps 745 mmHg 94%
    10:00 +27°C° 0.2 mm 1 mps 745 mmHg 90%
    11:00 +28°C° 0.2 mm 1 mps 745 mmHg 86%
    12:00 +29°C° 0.2 mm 1 mps 745 mmHg 81%
    13:00 +29°C° 0.1 mm 1 mps 744 mmHg 80%
    14:00 +29°C° 0.1 mm 1 mps 744 mmHg 79%
    15:00 +29°C° 0.1 mm 1 mps 743 mmHg 79%
    16:00 +28°C° 0.6 mm 1 mps 743 mmHg 83%
    17:00 +27°C° 0.6 mm 1 mps 743 mmHg 88%
    18:00 +27°C° 0.6 mm 1 mps 743 mmHg 93%
    19:00 +26°C° 0.7 mm 1 mps 744 mmHg 94%
    20:00 +24°C° 0.7 mm 0 mps 744 mmHg 94%
    21:00 +24°C° 0.7 mm 0 mps 745 mmHg 95%
    22:00 +24°C° 0.6 mm 0 mps 745 mmHg 95%
    23:00 +24°C° 0.6 mm 0 mps 745 mmHg 95%

    2 June, Tuesday

    Time Temperature Precipitation Wind Pressure Humidity
    00:00 +23°C° 0.6 mm 0 mps 745 mmHg 94%
    01:00 +23°C° 0.4 mm 0 mps 745 mmHg 95%
    02:00 +25°C° 0.4 mm 1 mps 744 mmHg 95%
    03:00 +25°C° 0.4 mm 1 mps 744 mmHg 95%
    04:00 +25°C° 0 mm 1 mps 744 mmHg 95%
    05:00 +25°C° 0 mm 1 mps 744 mmHg 95%
    06:00 +25°C° 0 mm 1 mps 744 mmHg 95%
    07:00 +26°C° 0 mm 1 mps 745 mmHg 93%
    08:00 +26°C° 0 mm 1 mps 745 mmHg 92%
    09:00 +24°C° 0 mm 0 mps 746 mmHg 90%
    10:00 +26°C° 0 mm 0 mps 745 mmHg 82%
    11:00 +30°C° 0 mm 1 mps 745 mmHg 73%
    12:00 +32°C° 0 mm 1 mps 744 mmHg 64%
    13:00 +32°C° 0 mm 1 mps 744 mmHg 65%
    14:00 +31°C° 0 mm 1 mps 743 mmHg 67%
    15:00 +31°C° 0 mm 2 mps 743 mmHg 68%
    16:00 +30°C° 0.4 mm 2 mps 743 mmHg 75%
    17:00 +29°C° 0.4 mm 1 mps 743 mmHg 81%
    18:00 +28°C° 0.4 mm 1 mps 743 mmHg 88%
    19:00 +27°C° 1.3 mm 1 mps 744 mmHg 91%
    20:00 +27°C° 1.3 mm 1 mps 745 mmHg 93%
    21:00 +26°C° 1.3 mm 1 mps 745 mmHg 96%
    22:00 +26°C° 1.1 mm 1 mps 745 mmHg 96%
    23:00 +25°C° 1.1 mm 1 mps 745 mmHg 96%

    3 June, Wednesday

    Time Temperature Precipitation Wind Pressure Humidity
    00:00 +25°C° 1.1 mm 1 mps 745 mmHg 97%
    01:00 +25°C° 0.2 mm 1 mps 744 mmHg 96%
    02:00 +25°C° 0.2 mm 1 mps 744 mmHg 95%
    03:00 +25°C° 0.2 mm 1 mps 744 mmHg 95%
    04:00 +25°C° 0 mm 1 mps 744 mmHg 94%
    05:00 +25°C° 0 mm 1 mps 744 mmHg 93%
    06:00 +25°C° 0 mm 1 mps 744 mmHg 92%
    07:00 +27°C° 0 mm 1 mps 744 mmHg 87%
    08:00 +28°C° 0 mm 1 mps 744 mmHg 82%
    09:00 +27°C° 0 mm 0 mps 745 mmHg 77%
    10:00 +30°C° 0 mm 1 mps 744 mmHg 73%
    11:00 +31°C° 0 mm 1 mps 744 mmHg 69%
    12:00 +32°C° 0 mm 2 mps 744 mmHg 66%
    13:00 +32°C° 0.3 mm 2 mps 743 mmHg 67%
    14:00 +32°C° 0.3 mm 2 mps 742 mmHg 68%
    15:00 +32°C° 0.3 mm 2 mps 742 mmHg 70%
    16:00 +30°C° 0.7 mm 2 mps 742 mmHg 75%
    17:00 +29°C° 0.7 mm 2 mps 742 mmHg 81%
    18:00 +28°C° 0.7 mm 1 mps 742 mmHg 87%
    19:00 +28°C° 1.4 mm 1 mps 743 mmHg 89%
    20:00 +27°C° 1.4 mm 1 mps 743 mmHg 91%
    21:00 +27°C° 1.4 mm 1 mps 744 mmHg 93%
    22:00 +27°C° 1.5 mm 1 mps 743 mmHg 92%
    23:00 +26°C° 1.5 mm 1 mps 743 mmHg 92%

    4 June, Thursday

    Time Temperature Precipitation Wind Pressure Humidity
    00:00 +26°C° 1.5 mm 1 mps 743 mmHg 91%
    01:00 +26°C° 0.3 mm 1 mps 743 mmHg 91%
    02:00 +26°C° 0.3 mm 1 mps 743 mmHg 91%
    03:00 +26°C° 0.3 mm 1 mps 742 mmHg 90%
    04:00 +26°C° 0.1 mm 1 mps 742 mmHg 90%
    05:00 +26°C° 0.1 mm 1 mps 743 mmHg 90%
    06:00 +26°C° 0.1 mm 1 mps 743 mmHg 90%
    07:00 +26°C° 0 mm 1 mps 743 mmHg 87%
    08:00 +27°C° 0 mm 1 mps 744 mmHg 85%
    09:00 +28°C° 0 mm 1 mps 744 mmHg 82%
    10:00 +29°C° 0 mm 1 mps 744 mmHg 75%
    11:00 +31°C° 0 mm 1 mps 744 mmHg 68%
    12:00 +32°C° 0 mm 1 mps 743 mmHg 61%
    13:00 +32°C° 0.2 mm 1 mps 743 mmHg 61%
    14:00 +32°C° 0.2 mm 1 mps 742 mmHg 61%
    15:00 +32°C° 0.2 mm 1 mps 742 mmHg 61%
    16:00 +31°C° 0.2 mm 1 mps 742 mmHg 69%
    17:00 +29°C° 0.2 mm 2 mps 742 mmHg 78%
    18:00 +28°C° 0.2 mm 2 mps 742 mmHg 86%
    19:00 +27°C° 0 mm 1 mps 742 mmHg 88%
    20:00 +27°C° 0 mm 1 mps 743 mmHg 90%
    21:00 +26°C° 0 mm 1 mps 743 mmHg 92%
    22:00 +26°C° 0 mm 1 mps 743 mmHg 92%
    23:00 +24°C° 0 mm 0 mps 743 mmHg 92%
    Show more